User: anonymous   Login
Location: Unspecified
(0.0000°N, 0.0000°E)
Time: 02:56:06
(UTC+00:00)
Language:

TBA - TO BE ASSIGNED - Orbit

View from above orbital plane
View from above orbital plane
View from above satellite
View from above satellite

Ground track
Ground track

The orbit is defined by the following mean orbital elements,

1 67660U          26145.35917227 +.00000000 +00000-0 +56184-3 0 00009
2 67660  97.2849 178.6288 0001029 172.1354 187.9905 15.33446875    06
Epoch (UTC): 25 May 2026 08:37:12
Eccentricity: 0.0001029
inclination: 97.2849°
perigee height: 465 km
apogee height: 466 km
right ascension of ascending node: 178.6288°
argument of perigee: 172.1354°
revolutions per day: 15.33446875
mean anomaly at epoch: 187.9905°

The dashed part of the orbit path shows where the satellite is in the earth's shadow,  

DLR